Oconto, WI

9:20 PM CST on December 08, 2019 (GMT -0600)
Oconto Municipal

Weather History for KOCQ - October, 2019

Change the Weather History Date:

Wednesday, October 16, 2019

  Actual Average Record
Temperature  
Mean Temperature 43 °F -  
Max Temperature 51 °F 57 °F 68 °F (2016)
Min Temperature 34 °F 35 °F 24 °F (2015)
Degree Days  
Heating Degree Days 22    
Moisture  
Dew Point 36 °F    
Average Humidity 73    
Maximum Humidity 93    
Minimum Humidity 52    
Precipitation  
Precipitation 0.00 in - - ()
Sea Level Pressure  
Sea Level Pressure 29.86 in    
Wind  
Wind Speed 11 mph (NNW)    
Max Wind Speed 17 mph    
Max Gust Speed 30 mph    
Visibility 10 miles    
Events      
Averages and records for this station are not official NWS values.
T = Trace of Precipitation, MM = Missing Value Source: NWS Daily Summary

Daily Weather History Graph

Daily Weather History Graph

Search for Another Location

Airport or City:

Astronomy

Oct. 16, 2019 Rise Set
Actual Time 7:08 AM CDT 6:05 PM CDT
Civil Twilight 6:38 AM CDT 6:35 PM CDT
Nautical Twilight 6:04 AM CDT 7:08 PM CDT
Astronomical Twilight 5:30 AM CDT 7:42 PM CDT
Moon 7:52 PM CDT (10/16) 9:43 AM CDT (10/16)
Length of Visible Light 11h 56m
Length of Day
10h 57m
Waning Gibbous, 92% of the Moon is Illuminated
Oct 16
Waning Gibbous
Oct 21
Last Quarter
Oct 27
New
Nov 4
First Quarter
Nov 12
Full

Hourly Weather History & Observations

Time (CDT) Temp. Windchill Dew Point Humidity Pressure Visibility Wind Dir Wind Speed Gust Speed Precip Events Conditions
12:15 AM 41.5 °F 34.6 °F 39.6 °F 93% 29.67 in 10.0 mi North 12.7 mph 25.3 mph N/A   Overcast
12:35 AM 41.4 °F 34.7 °F 39.4 °F 93% 29.68 in 10.0 mi NNW 11.5 mph 17.3 mph N/A   Overcast
12:55 AM 41.4 °F 35.7 °F 39.4 °F 93% 29.68 in 10.0 mi NNW 9.2 mph 18.4 mph N/A   Overcast
1:15 AM 41.4 °F 35.7 °F 39.4 °F 93% 29.69 in 10.0 mi NNW 9.2 mph 18.4 mph N/A   Overcast
1:35 AM 41.5 °F 35.4 °F 39.6 °F 93% 29.70 in 10.0 mi NNW 10.4 mph 18.4 mph N/A   Overcast
1:55 AM 41.9 °F 36.9 °F 39.7 °F 92% 29.70 in 10.0 mi NNW 8.1 mph 17.3 mph N/A   Overcast
2:15 AM 42.1 °F 35.2 °F 39.7 °F 91% 29.71 in 10.0 mi NNW 12.7 mph 18.4 mph N/A   Overcast
2:35 AM 42.8 °F 37.0 °F 39.9 °F 90% 29.71 in 10.0 mi NNW 10.4 mph 18.4 mph N/A   Overcast
2:55 AM 42.8 °F 35.8 °F 39.7 °F 89% 29.71 in 10.0 mi NNW 13.8 mph 20.7 mph N/A   Overcast
3:35 AM 43.0 °F 37.7 °F 39.6 °F 88% 29.72 in 10.0 mi NNW 9.2 mph 19.6 mph N/A   Overcast
3:55 AM 43.0 °F 36.4 °F 39.4 °F 87% 29.73 in 10.0 mi NW 12.7 mph 20.7 mph N/A   Overcast
4:15 AM 43.3 °F 37.2 °F 39.2 °F 85% 29.73 in 10.0 mi NW 11.5 mph 21.9 mph N/A   Overcast
4:35 AM 43.7 °F 36.9 °F 39.4 °F 85% 29.74 in 10.0 mi NW 13.8 mph 19.6 mph N/A   Overcast
4:55 AM 43.7 °F 36.3 °F 39.2 °F 84% 29.75 in 10.0 mi NNW 16.1 mph 19.6 mph N/A   Overcast
5:35 AM 44.1 °F 38.1 °F 39.2 °F 83% 29.76 in 10.0 mi NW 11.5 mph 20.7 mph N/A   Overcast
5:55 AM 44.1 °F 37.7 °F 38.8 °F 82% 29.77 in 10.0 mi NNW 12.7 mph 19.6 mph N/A   Overcast
6:15 AM 44.1 °F 37.4 °F 38.3 °F 80% 29.78 in 10.0 mi NNW 13.8 mph 19.6 mph N/A   Overcast
6:35 AM 44.1 °F 38.1 °F 38.3 °F 80% 29.78 in 10.0 mi NNW 11.5 mph 26.5 mph N/A   Overcast
6:55 AM 43.9 °F 37.5 °F 38.3 °F 81% 29.79 in 10.0 mi NNW 12.7 mph 19.6 mph N/A   Overcast
7:15 AM 44.2 °F 38.8 °F 38.3 °F 80% 29.80 in 10.0 mi NNW 10.4 mph 21.9 mph N/A   Overcast
7:35 AM 44.1 °F 37.4 °F 37.9 °F 79% 29.80 in 10.0 mi NNW 13.8 mph 19.6 mph N/A   Overcast
7:55 AM 44.1 °F 37.4 °F 37.9 °F 79% 29.81 in 10.0 mi NNW 13.8 mph 20.7 mph N/A   Mostly Cloudy
8:15 AM 43.7 °F 38.6 °F 37.9 °F 80% 29.82 in 10.0 mi NNW 9.2 mph 18.4 mph N/A   Scattered Clouds
8:35 AM 45.0 °F 38.2 °F 38.3 °F 77% 29.82 in 10.0 mi NNW 15.0 mph 18.4 mph N/A   Scattered Clouds
9:15 AM 47.3 °F - 37.6 °F 69% 29.84 in 10.0 mi NNW 16.1 mph 29.9 mph N/A   Scattered Clouds
9:35 AM 47.8 °F - 36.5 °F 65% 29.84 in 10.0 mi North 17.3 mph 28.8 mph N/A   Scattered Clouds
9:55 AM 48.4 °F - 36.5 °F 64% 29.84 in 10.0 mi North 11.5 mph 24.2 mph N/A   Scattered Clouds
10:15 AM 48.2 °F - 37.8 °F 67% 29.85 in 10.0 mi NNW 15.0 mph 23.0 mph N/A   Mostly Cloudy
10:35 AM 48.6 °F - 36.3 °F 63% 29.86 in 10.0 mi North 13.8 mph 27.6 mph N/A   Mostly Cloudy
10:55 AM 49.3 °F - 35.8 °F 60% 29.86 in 10.0 mi North 12.7 mph 23.0 mph N/A   Overcast
11:35 AM 49.6 °F - 36.5 °F 61% 29.87 in 10.0 mi North 15.0 mph 23.0 mph N/A   Overcast
12:15 PM 49.1 °F - 36.5 °F 62% 29.88 in 10.0 mi NNW 13.8 mph 19.6 mph N/A   Overcast
12:35 PM 49.3 °F - 36.7 °F 62% 29.89 in 10.0 mi NNW 11.5 mph 25.3 mph N/A   Overcast
12:55 PM 50.2 °F - 38.3 °F 64% 29.89 in 10.0 mi NNW 17.3 mph 24.2 mph N/A   Overcast
1:15 PM 50.7 °F - 38.1 °F 62% 29.89 in 10.0 mi NNW 15.0 mph 25.3 mph N/A   Overcast
1:35 PM 50.5 °F - 40.3 °F 68% 29.89 in 10.0 mi NW 12.7 mph 17.3 mph N/A   Mostly Cloudy
1:55 PM 49.6 °F - 38.1 °F 65% 29.89 in 10.0 mi NNW 10.4 mph - N/A   Overcast
2:15 PM 50.7 °F - 35.8 °F 57% 29.89 in 10.0 mi NNW 15.0 mph 26.5 mph N/A   Overcast
2:35 PM 50.7 °F - 37.2 °F 60% 29.90 in 10.0 mi NNW 15.0 mph 20.7 mph N/A   Overcast
2:55 PM 50.5 °F - 36.9 °F 59% 29.90 in 10.0 mi NNW 16.1 mph 21.9 mph N/A   Mostly Cloudy
3:15 PM 50.4 °F - 36.3 °F 59% 29.90 in 10.0 mi NNW 11.5 mph 24.2 mph N/A   Scattered Clouds
3:35 PM 50.9 °F - 35.8 °F 56% 29.90 in 10.0 mi NNW 13.8 mph 19.6 mph N/A   Mostly Cloudy
3:55 PM 51.6 °F - 35.1 °F 53% 29.91 in 10.0 mi NW 12.7 mph 21.9 mph N/A   Overcast
4:15 PM 51.3 °F - 34.9 °F 54% 29.92 in 10.0 mi NW 11.5 mph 23.0 mph N/A   Mostly Cloudy
4:35 PM 50.4 °F - 33.3 °F 52% 29.92 in 10.0 mi NNW 13.8 mph 19.6 mph N/A   Mostly Cloudy
4:55 PM 50.0 °F - 33.6 °F 53% 29.92 in 10.0 mi NW 11.5 mph 18.4 mph N/A   Mostly Cloudy
5:15 PM 49.6 °F - 33.8 °F 54% 29.92 in 10.0 mi NW 10.4 mph 17.3 mph N/A   Overcast
5:35 PM 48.6 °F - 33.8 °F 57% 29.93 in 10.0 mi NNW 6.9 mph - N/A   Mostly Cloudy
5:55 PM 47.5 °F - 32.5 °F 56% 29.93 in 10.0 mi NW 8.1 mph - N/A   Clear
6:15 PM 46.6 °F - 32.4 °F 58% 29.93 in 10.0 mi NNW 8.1 mph - N/A   Clear
6:35 PM 45.7 °F 42.7 °F 32.5 °F 60% 29.94 in 10.0 mi NW 5.8 mph - N/A   Clear
6:55 PM 45.3 °F 42.3 °F 32.9 °F 62% 29.95 in 10.0 mi NW 5.8 mph - N/A   Clear
7:15 PM 44.6 °F 40.7 °F 32.7 °F 63% 29.96 in 10.0 mi NNW 6.9 mph - N/A   Clear
7:35 PM 43.7 °F 40.3 °F 32.4 °F 64% 29.97 in 10.0 mi NW 5.8 mph - N/A   Clear
7:55 PM 43.2 °F 39.0 °F 32.4 °F 66% 29.98 in 10.0 mi NNW 6.9 mph - N/A   Clear
8:15 PM 42.8 °F 37.5 °F 32.5 °F 67% 29.98 in 10.0 mi NNW 9.2 mph - N/A   Clear
8:35 PM 42.3 °F 38.6 °F 32.9 °F 69% 29.99 in 10.0 mi NNW 5.8 mph - N/A   Clear
8:55 PM 41.5 °F 39.6 °F 32.9 °F 71% 29.99 in 10.0 mi NNW 3.5 mph - N/A   Clear
9:15 PM 40.8 °F 38.8 °F 32.9 °F 73% 29.99 in 10.0 mi NW 3.5 mph - N/A   Scattered Clouds
9:35 PM 40.3 °F - 32.9 °F 75% 30.00 in 10.0 mi Calm Calm - N/A   Scattered Clouds
9:55 PM 38.1 °F - 33.1 °F 82% 29.99 in 10.0 mi Calm Calm - N/A   Clear
10:15 PM 35.6 °F 32.8 °F 32.9 °F 90% 29.99 in 10.0 mi West 3.5 mph - N/A   Clear
10:35 PM 35.8 °F 33.0 °F 33.6 °F 92% 29.99 in 10.0 mi West 3.5 mph - N/A   Clear
10:55 PM 35.2 °F 31.2 °F 33.3 °F 92% 29.99 in 10.0 mi West 4.6 mph - N/A   Clear
11:15 PM 35.1 °F 31.0 °F 32.5 °F 91% 30.00 in 10.0 mi West 4.6 mph - N/A   Clear
11:35 PM 36.0 °F 33.3 °F 32.9 °F 89% 29.99 in 10.0 mi West 3.5 mph - N/A   Clear
11:55 PM 34.5 °F 31.6 °F 32.5 °F 92% 29.99 in 10.0 mi WNW 3.5 mph - N/A   Clear